Regional Weather Roundup
Issued by NWS Sterling, VA

Home | Current Version | Previous Version | Graphics & Text | Print | Product List | Glossary On
Versions: 1 2 3 4 5 6 7 8 9 10 11 12 13 14 15 16 17 18 19 20 21 22 23 24 25 26 27 28
000
ASUS41 KLWX 090410
RWRLWX

REGIONAL WEATHER ROUNDUP
NATIONAL WEATHER SERVICE BALTIMORE MD/WASHINGTON DC
1100 PM EST THU DEC 08 2016

Note: "FAIR" indicates few or no clouds below 12,000 feet
with no significant weather and/or obstructions to visibility.
 TC=TEMPERATURE CELSIUS

 * =Non NWS site. Station does not report precipitation (e.g. rain,
    snow, etc.), thunder, or fog.

DCZ001-MDZ009-015-VAZ040>042-051-053>054-090500-
WASHINGTON METRO

CITY           SKY/WX    TMP DP  RH WIND       PRES   REMARKS
WASHINGTON NAT PTCLDY    35  13  40 NW18G25   30.20R WCI  24
DULLES         MOCLDY    32  13  45 NW21G29   30.19R WCI  20
ANDREWS AFB    CLEAR     33  13  42 NW17G26   30.17R WCI  22
FT BELVOIR     CLEAR     34  13  41 NW10      30.20R WCI  26
QUANTICO       CLEAR     34  16  47 N9G21     30.21R WCI  27
COLLEGE PARK*  CLEAR     32  14  47 NW7       30.18R
LEESBURG*      CLOUDY    34  19  55 NW14G25   30.21R WCI  24
GAITHERSBURG*  PTCLDY    30  12  47 NW20G26   30.20F WCI  18

$$

MDZ006>007-011-014-090500-
BALTIMORE METRO

CITY           SKY/WX    TMP DP  RH WIND       PRES   REMARKS
BWI AIRPORT    PTCLDY    32  14  47 NW13      30.17R WCI  22
MD SCIENCE CTR   N/A     34  12  40 MISG      30.16R
ANNAPOLIS      CLEAR     36  18  48 NW14G23   30.18R WCI  27
FORT MEADE*    CLEAR     32  18  55 NW12G21   30.20R WCI  23

$$

MDZ012-015-019>023-090500-
MARYLAND EASTERN SHORE

CITY           SKY/WX    TMP DP  RH WIND       PRES   REMARKS
OCEAN CITY     PTCLDY    36  22  56 N15G23    30.12R WCI  27
SALISBURY      PTCLDY    36  21  54 NW14G23   30.14R WCI  27
BAY BRIDGE AP* CLEAR     34  16  47 MISG      30.18R
EASTON*        PTCLDY    35  15  44 NW18G28   30.20R WCI  24

$$

MDZ017>025-090500-
SOUTHERN MARYLAND

CITY           SKY/WX    TMP DP  RH WIND       PRES   REMARKS
PATUXENT RIVER MOCLDY    37  18  46 NW29G36   30.16R WCI  25
ST INIGOES     MOCLDY    37  16  42 NW10G18   30.17R
LEONARDTOWN*   MOCLDY    34  18  51 NW8G16    30.18R WCI  27

$$

MDZ003>005-090500-
NORTH CENTRAL MARYLAND

CITY           SKY/WX    TMP DP  RH WIND       PRES   REMARKS
FREDERICK*     NOT AVBL
HAGERSTOWN APT CLOUDY    31  12  45 NW12      30.17R WCI  22
WESTMINSTER*   NOT AVBL

$$

MDZ501>502-090500-
WESTERN MARYLAND

CITY           SKY/WX    TMP DP  RH WIND       PRES   REMARKS
OAKLAND*       CLOUDY    16  12  86 W10G18    30.08F FOG     WCI   3
CUMBERLAND*    NOT AVBL

$$

VAZ025>031-090500-
SHENANDOAH VALLEY

CITY           SKY/WX    TMP DP  RH WIND       PRES   REMARKS
WINCHESTER*    CLOUDY    30  14  51 NW16G22   30.20R WCI  19
FRONT ROYAL*   CLOUDY    32  16  51 W6        30.17S
LURAY*         CLOUDY    32  18  55 SW9       30.18R WCI  24
NEW MARKET*    CLOUDY    31  11  42 CALM      30.19R
STAUNTON*      MOCLDY    30  13  49 NW9       30.20R WCI  22
WAYNESBORO*    FAIR      30  10  42 W7        30.17R

$$

WVZ021-048>050-054>055-090500-
EASTERN WEST VIRGINIA PANHANDLE

CITY           SKY/WX    TMP DP  RH WIND       PRES   REMARKS
MARTINSBURG    CLOUDY    30  13  49 CALM      30.20R
PETERSBURG*    PTCLDY    31  15  52 W14G26    30.22R WCI  20

$$

VAZ036>039-050-090500-
CENTRAL FOOTHILLS

CITY           SKY/WX    TMP DP  RH WIND       PRES   REMARKS
CHARLOTTESVILL PTCLDY    36  12  37 NW9       30.19R WCI  29
CULPEPER*      CLEAR     32  16  50 CALM      30.21R
ORANGE*          N/A     32  18  55 CALM      30.21R
GORDONSVILLE*  FAIR      35  13  41 W3        30.19R
WARRENTON*     FAIR      33  11  40 NW7       30.19R

$$

VAZ055>057-090500-
NORTH AND CENTRAL PIEDMONT

CITY           SKY/WX    TMP DP  RH WIND       PRES   REMARKS
FREDERICKSBRG* PTCLDY    36  18  48 NW6       30.19R
STAFFORD*      CLOUDY    31  18  58 NW10      30.23R WCI  23

$$

NCZ024-NYZ072-PAZ021-071-VAZ022-071-090500-
OTHER REGIONAL OBSERVATIONS

CITY           SKY/WX    TMP DP  RH WIND       PRES   REMARKS
NEW YORK CITY    N/A     36  16  44 MISG        N/A
PHILADELPHIA   CLEAR     33  12  41 W22G31    30.12R WCI  21
PITTSBURGH     FLURRIES  25  16  68 W12G21    30.22S WCI  14
ROANOKE        CLOUDY    31  13  47 NW9       30.26R WCI  23
RICHMOND       CLOUDY    39  14  36 NW15G22   30.18R
RALEIGH        PTCLDY    41  12  30 NW8       30.23R

$$

ANZ530>537-090500-
MARINE OBSERVATIONS

STATION/POSITION TIME  TEMP    WIND        PRES
                       AIR SEA DIR/SP/G
                 (UTC) (F)     (DEG/KT/KT) (MB)
THOMAS PT LIGHT  0400   35 47  330/ 14/ 16   N/A
BALT KEY BRIDGE  0336   34     290/ 19/ 25 1021.4R
COVE POINT       0336   37     360/ 27/ 34 1021.6R
LEWISETTA        0336   40 48  330/ 16/ 21 1021.0R
SOLOMONS ISLAND  0336   38 50  330/ 15/ 20   N/A
PINEY POINT      0336          350/ 23/ 26   N/A

$$





USA.gov is the U.S. government's official web portal to all federal, state and local government web resources and services.